Weather History for Sioux City, IA

Change the Weather History Date:

Thursday, November 7, 2013

  Actual Average Record
Temperature  
Mean Temperature 35 °F 41 °F  
Max Temperature 45 °F 52 °F 77 °F (1954)
Min Temperature 24 °F 30 °F -9 °F (1991)
Degree Days  
Heating Degree Days 30 24  
Month to date heating degree days 168 159  
Since 1 July heating degree days 693 759  
Cooling Degree Days 0 0  
Month to date cooling degree days 0 0  
Year to date cooling degree days 960 869  
Moisture  
Dew Point 25 °F    
Average Humidity 71    
Maximum Humidity 100    
Minimum Humidity 41    
Precipitation  
Precipitation 0.00 in 0.04 in 0.66 in (1918)
Month to date precipitation 0.96 0.32  
Year to date precipitation 26.42 25.95  
Snow  
Snow 0.00 in 0.10 in 5.50 in (1943)
Month to date snowfall 0.5 0.6  
Since 1 July snowfall 0.5 1.6  
Since 1 September snowfall 0.5 1.6  
Snow Depth 0.00 in    
Sea Level Pressure  
Sea Level Pressure 30.35 in    
Wind  
Wind Speed 7 mph (WNW)    
Max Wind Speed 22 mph    
Max Gust Speed 26 mph    
Visibility 10 miles    
Events      
T = Trace of Precipitation, MM = Missing Value Source: NWS Daily Summary

Daily Weather History Graph

Daily Weather History Graph

Search for Another Location

Airport:

Trip Planner

Search our weather history database for the weather conditions in past years. The results will help you decide how hot, cold, wet, or windy it might be!

Date:

Astronomy

Nov. 07, 2013 Rise Set
Actual Time 7:06 AM CST 5:11 PM CST
Civil Twilight 6:37 AM CST 5:40 PM CST
Nautical Twilight 6:03 AM CST 6:14 PM CST
Astronomical Twilight 5:30 AM CST 6:47 PM CST
Moon 11:17 AM CST (11/7) 9:23 PM CST (11/7)
Length of Visible Light 11h 03m
Length of Day
10h 04m
Waxing Crescent, 23% of the Moon is Illuminated
Nov 7
Waxing Crescent
Nov 9
First Quarter
Nov 17
Full
Nov 25
Last Quarter
Dec 2
New

Hourly Weather History & Observations

Time (CST) Temp. Windchill Dew Point Humidity Pressure Visibility Wind Dir Wind Speed Gust Speed Precip Events Conditions
12:52 AM 27.0 °F - 26.1 °F 96% 30.29 in 10.0 mi Calm Calm - N/A   Clear
1:52 AM 27.0 °F 23.0 °F 25.0 °F 92% 30.29 in 8.0 mi West 3.5 mph - N/A   Scattered Clouds
2:52 AM 27.0 °F 23.0 °F 25.0 °F 92% 30.29 in 10.0 mi West 3.5 mph - N/A   Scattered Clouds
3:52 AM 27.0 °F - 24.1 °F 89% 30.30 in 10.0 mi Calm Calm - N/A   Clear
4:52 AM 25.0 °F - 23.0 °F 92% 30.32 in 10.0 mi Calm Calm - N/A   Clear
5:52 AM 28.0 °F 21.7 °F 26.1 °F 92% 30.33 in 10.0 mi West 5.8 mph - N/A   Clear
6:52 AM 27.0 °F 21.6 °F 25.0 °F 92% 30.35 in 10.0 mi West 4.6 mph - N/A   Clear
7:52 AM 32.0 °F 22.1 °F 27.0 °F 82% 30.38 in 10.0 mi WNW 13.8 mph - N/A   Clear
8:52 AM 34.0 °F 24.6 °F 28.0 °F 79% 30.40 in 10.0 mi WNW 13.8 mph - N/A   Clear
9:52 AM 36.0 °F 26.3 °F 28.9 °F 76% 30.40 in 10.0 mi NW 16.1 mph 23.0 mph N/A   Clear
10:52 AM 37.9 °F 29.2 °F 27.0 °F 65% 30.42 in 10.0 mi NW 15.0 mph - N/A   Clear
11:52 AM 39.0 °F 29.6 °F 25.0 °F 57% 30.42 in 10.0 mi NNW 18.4 mph - N/A   Clear
12:52 PM 42.1 °F 35.7 °F 26.1 °F 53% 30.40 in 10.0 mi NW 11.5 mph - N/A   Clear
1:52 PM 44.1 °F 38.1 °F 26.1 °F 49% 30.38 in 10.0 mi WNW 11.5 mph - N/A   Clear
2:52 PM 45.0 °F 40.1 °F 23.0 °F 42% 30.38 in 10.0 mi NW 9.2 mph - N/A   Clear
3:52 PM 45.0 °F 40.6 °F 26.1 °F 48% 30.37 in 10.0 mi NW 8.1 mph - N/A   Clear
4:52 PM 42.1 °F 40.2 °F 26.1 °F 53% 30.36 in 10.0 mi West 3.5 mph - N/A   Clear
5:52 PM 34.0 °F 31.0 °F 23.0 °F 64% 30.36 in 10.0 mi SW 3.5 mph - N/A   Clear
6:52 PM 34.0 °F 31.0 °F 24.1 °F 67% 30.35 in 10.0 mi South 3.5 mph - N/A   Clear
7:52 PM 28.9 °F 23.9 °F 23.0 °F 78% 30.33 in 10.0 mi ESE 4.6 mph - N/A   Clear
8:52 PM 28.0 °F - 23.0 °F 81% 30.33 in 10.0 mi Calm Calm - N/A   Clear
9:52 PM 24.1 °F 16.0 °F 21.0 °F 88% 30.32 in 10.0 mi ESE 6.9 mph - N/A   Clear
10:52 PM 26.1 °F 18.4 °F 21.0 °F 81% 30.30 in 10.0 mi ESE 6.9 mph - N/A   Clear
11:52 PM 26.1 °F 17.6 °F 21.9 °F 84% 30.27 in 10.0 mi ESE 8.1 mph - N/A   Clear